Lid_Strength_Index
9 11 12 10 9 10 11 11 12 10 9 10 10 11 10 9 8 8 8 7 7 7 7 7 6 6 6 6 6 6 6 5 5 4 4 3 2 1 1 1 1 1 2 3
11 13 10 10 9 11 11 12 12 10 9 10 11 12 11 10 9 8 8 8 8 8 7 8 8 8 8 8 8 7 6 6 6 5 4 4 3 3 2 2 2 2 3 3
12 10 9 11 11 12 11 12 12 12 11 10 12 13 11 9 7 8 8 8 8 9 9 9 10 10 9 9 9 8 8 7 7 6 6 5 5 5 5 4 3 3 3 4
11 11 12 12 13 12 14 10 12 13 14 16 12 17 12 9 9 10 10 10 9 10 10 10 11 11 11 10 9 9 8 8 8 7 7 7 7 8 7 6 5 5 5 5
12 12 13 13 12 11 13 11 12 13 14 14 14 15 12 9 11 11 11 11 10 10 11 11 11 11 11 10 10 9 9 9 8 8 8 8 8 8 7 7 6 6 6 7
11 10 11 11 11 11 11 12 12 12 13 16 12 13 13 12 12 12 11 11 11 11 11 11 11 11 11 11 10 10 11 11 10 9 9 9 9 9 8 8 8 8 8 8
10 10 8 10 11 10 12 13 16 17 16 17 13 13 12 10 11 11 12 11 11 11 11 11 12 11 12 12 11 11 11 12 11 11 10 10 10 9 9 9 9 9 9 9
13 14 10 10 11 11 12 12 16 21 19 17 12 16 12 10 10 10 10 11 11 11 11 12 12 12 12 12 12 12 12 12 12 12 12 11 11 10 9 9 9 9 9 8
12 13 10 11 10 10 11 13 10 16 16 18 14 11 9 11 11 11 11 11 12 12 11 11 11 12 12 12 12 12 12 12 13 13 12 12 12 11 11 11 10 9 9 9
10 15 9 8 10 9 11 10 14 14 20 21 15 14 12 11 11 10 11 11 12 11 11 11 11 11 11 11 11 12 12 13 13 13 13 13 12 11 11 11 11 11 10 10
9 12 12 9 10 11 10 12 12 12 14 19 19 15 8 10 10 11 12 12 12 12 11 11 12 11 11 11 12 12 12 13 13 12 12 12 12 11 12 12 12 12 11 10
8 11 15 12 8 7 8 11 11 15 16 15 16 15 7 10 10 11 11 12 12 12 12 12 12 12 12 12 12 12 12 13 13 12 12 12 12 12 12 12 12 12 12 12
9 12 17 14 11 10 12 11 12 13 14 17 19 17 9 9 11 12 12 13 12 12 13 13 12 13 13 12 13 13 12 12 12 13 12 12 12 11 12 12 12 13 12 12
8 12 15 17 13 10 13 12 12 13 16 15 16 14 10 10 10 10 12 12 13 13 13 14 13 13 12 12 12 12 13 12 12 12 11 12 12 12 12 12 13 13 12 12
8 14 12 11 11 11 12 12 12 12 12 15 13 13 10 9 10 13 14 14 13 12 13 13 13 12 12 11 11 12 11 11 12 12 12 12 12 12 13 13 13 14 14 13
9 13 11 14 11 11 12 11 11 11 11 12 11 11 8 9 10 10 11 13 14 12 12 11 11 11 11 10 11 11 11 10 11 12 12 12 13 13 13 13 14 14 14 14
11 12 13 16 13 13 16 15 13 12 11 11 13 11 11 11 11 11 11 11 11 11 10 10 10 10 10 10 9 10 10 9 10 11 11 12 13 14 14 14 14 15 15 14
12 13 13 16 15 21 14 11 12 13 12 10 11 11 10 11 10 9 9 9 10 9 9 9 9 9 9 9 9 9 9 10 10 11 11 11 12 12 13 14 14 15 15 15
11 13 15 18 18 15 15 13 13 13 13 9 9 10 10 9 9 10 7 7 8 8 7 7 7 8 8 9 9 10 10 11 11 11 12 12 11 12 13 14 14 14 15 15
13 12 14 17 20 21 14 12 10 10 15 9 9 10 10 10 13 11 7 6 7 6 6 6 7 7 8 8 9 10 11 11 11 11 11 11 11 12 13 13 13 13 14 14
16 15 17 16 17 15 11 10 9 16 13 8 8 9 9 10 9 7 6 7 6 6 6 7 8 9 9 9 10 12 12 12 12 12 12 13 13 14 14 14 14 15 15 15
16 16 17 15 17 19 9 10 13 9 8 7 8 8 8 8 7 7 7 7 7 8 8 9 10 11 10 11 12 13 14 13 14 15 16 16 17 17 17 17 17 17 18 18
16 13 14 13 13 9 8 8 7 7 7 7 7 7 7 8 8 7 8 7 8 9 10 10 12 12 12 12 13 15 15 15 17 19 20 20 20 19 19 20 20 20 19 20
11 9 11 11 10 9 8 7 6 6 7 6 6 7 7 8 8 9 9 9 10 10 11 11 13 14 14 14 14 16 16 17 20 21 21 21 21 21 21 20 20 21 21 21
9 9 11 11 9 8 8 7 7 6 6 7 6 8 8 9 10 10 11 11 11 11 12 13 14 15 15 15 17 17 18 19 21 22 22 22 22 22 22 21 22 21 20 20
8 10 11 12 8 8 8 6 6 7 7 7 7 10 10 11 12 12 12 12 13 13 14 15 15 16 17 18 18 18 19 20 22 23 23 23 24 23 23 23 23 19 18 17